Regional Weather Roundup
Issued by NWS San Diego, CA

Home | Current Version | Previous Version | Text Only | Print | Product List | Glossary On
Versions: 1 2 3 4 5 6 7 8 9 10 11 12 13 14 15 16 17 18 19 20 21 22 23 24 25 26 27 28 29 30 31 32 33 34 35 36 37 38 39 40 41 42 43 44 45 46 47 48 49 50
000
ASUS46 KSGX 231011
RWRSGX

SAN DIEGO HOURLY WEATHER ROUNDUP
NATIONAL WEATHER SERVICE SAN DIEGO CA
300 AM PDT SAT MAY 23 2015

NOTE: "FAIR" INDICATES FEW OR NO CLOUDS BELOW 12,000 FEET WITH NO
SIGNIFICANT WEATHER AND/OR OBSTRUCTIONS TO VISIBILITY.

CAZ042-043-060-061-PZZ750-775-231100-

GREATER SAN DIEGO AREA

CITY           SKY/WX    TMP DP  RH WIND       PRES   REMARKS
LINDBERGH FLD  MOCLDY    62  54  74 W3        30.09S
POINT LOMA       N/A     60  55  82 W12         N/A
NATIONAL CITY    N/A     61  57  87 W1        30.09S
CHULA VISTA      N/A     59  57  94 CALM      30.01S
IMPERIAL BEACH LGT RAIN  59  57  93 S3        30.09S
BROWN FIELD    LGT RAIN  57  55  93 SW3       30.08S FOG
MIRAMAR MCAS   LGT RAIN  61  54  77 SE3       30.07S
MONTGOMERY FLD LGT RAIN  58  54  86 CALM      30.08S

$$

NORTH SAN DIEGO COUNTY

CITY           SKY/WX    TMP DP  RH WIND       PRES   REMARKS
CAMP PENDLETON CLOUDY    60  54  80 CALM      30.07S
OCEANSIDE AP   CLOUDY    60  55  83 CALM      30.06S
OCEANSIDE HBR    N/A     60  57  89 CALM      30.09S
VISTA            N/A     59  54  82 CALM      30.05S
CARLSBAD       LGT RAIN  59  56  89 SE3       30.06S FOG
DEL MAR          N/A     60  56  85 CALM      30.09S
LA JOLLA SCRIP   N/A    N/A N/A N/A SW3       30.05S
FALLBROOK        N/A     57  57 100 CALM      30.07R
ESCONDIDO        N/A     58  53  84 E2        30.08F
SAN MARCOS       N/A     58  53  85 CALM      30.05F

$$

EAST SAN DIEGO COUNTY

CITY           SKY/WX    TMP DP  RH WIND       PRES   REMARKS
RAMONA         CLOUDY    54  50  86 SE3       30.07S
SANTEE LAKES     N/A     57  53  89 CALM      30.08S
LA MESA          N/A     57  54  89 CALM      30.03R
JAMUL            N/A     54  52  94 CALM      30.08S
DESCANSO N       N/A     46  44  95 W2        30.00R
CAMPO            N/A     49  44  83 SW9       30.03S

$$

ORANGE COUNTY AND THE LOS ANGELES BASIN

CITY           SKY/WX    TMP DP  RH WIND       PRES   REMARKS
JOHN WAYNE AP  CLEAR     60  53  77 CALM      30.05F
LAKE FOREST FR   N/A     55  49  79 CALM      29.97F
SANTA ANA        N/A     60  53  78 CALM      30.01F
HUNTINGTON BCH   N/A     59  56  88 CALM      30.07F
LOS ALAMITOS   MOCLDY    58  55  88 CALM      30.05F
FULLERTON      MOCLDY    61  53  75 CALM      30.05S
LONG BEACH     PTCLDY    60  52  74 CALM      30.05F
L.A. AP        PTCLDY    58  53  84 W7        30.06S
L.A. DOWNTOWN  MOCLDY    59  52  77 CALM      30.05S

$$

THE INLAND EMPIRE

CITY           SKY/WX    TMP DP  RH WIND       PRES   REMARKS
CORONA         PTCLDY    55  50  83 CALM      30.06F
CHINO          CLOUDY    59  51  75 S3        30.07S
ONTARIO        CLOUDY    57  50  77 SW6       30.06S
RIVERSIDE AP   CLOUDY    58  52  80 CALM      30.06S
RIV CYN CREST    N/A     57  57 100 S1          N/A
MORENO VALLEY    N/A     53  53  98 CALM      30.04S
MARCH ARB      CLOUDY    55  51  87 CALM      30.06S
HORSETHIEF CYN   N/A     52  44  74 SW2       30.04S
PERRIS           N/A     55  53  94 SE2         N/A
MENIFEE          N/A     56  53  89 CALM      30.13S
HEMET EAST       N/A     52  47  82 CALM      30.05S
FRENCH VALLEY  CLOUDY    55  50  82 S3        30.07S
TEMECULA         N/A     56  53  90 S3        30.04S

$$

SAN BERNARDINO AND RIVERSIDE COUNTY MOUNTAINS

CITY           SKY/WX    TMP DP  RH WIND       PRES   REMARKS
BIG BEAR AP    CLOUDY    37  34  87 W5        30.08F WCI  34
ANGELUS OAKS     N/A     39  37  92 CALM      30.04S
PINE COVE        N/A     38  39 100 N1        30.09S

$$

SOUTHERN DESERT INCLUDING THE COACHELLA VALLEY

CITY           SKY/WX    TMP DP  RH WIND       PRES   REMARKS
PALM SPRINGS   CLEAR     63  46  54 SE5       29.95S
THOUSAND PALMS   N/A     64  48  56 W9        29.94R
PALM DESERT      N/A     61  50  66 CALM        N/A
THERMAL        CLEAR     65  48  54 N16G24    29.91S
BLYTHE         CLEAR     62  48  60 CALM      29.91S
IMPERIAL AP    CLEAR     62  45  53 W12       29.94S
EL CENTRO NAS  CLEAR     63  44  50 SW18      29.97R
YUMA AZ        CLEAR     61  45  55 VRB3      29.95S

$$

UPPER DESERT

CITY           SKY/WX    TMP DP  RH WIND       PRES   REMARKS
VICTORVILLE AP PTCLDY    48  45  87 S12       30.01F
HESPERIA         N/A     49  45  86 W5        30.15S
APPLE VALLEY     N/A     50  44  79 CALM      30.09S
PALMDALE       CLEAR     53  45  74 SW16      30.01F
LANCASTER      CLEAR     53  45  74 SW12      30.01S
EDWARDS AFB    CLEAR     54  45  72 SW13      29.97S
DAGGETT        PTCLDY    57  43  59 W13       29.97F
29 PALMS N     CLEAR     60  41  49 NW8       30.03S
NEEDLES        CLEAR     65  43  44 SW7       29.90S

$$

REGIONAL REPORTS

CITY           SKY/WX    TMP DP  RH WIND       PRES   REMARKS
SANTA BARBARA  CLEAR     51  46  83 CALM      30.03F
SANDBERG       CLOUDY    49  45  86 NW15G24   30.07S
LAS VEGAS NV   PTCLDY    61  42  49 SW9       29.87S
PHOENIX AZ     CLEAR     66  39  37 SW5       29.92S
TIJUANA        MOCLDY    57  52  82 CALM      30.10S
ENSENADA NW      N/A     57  32  38 N1        30.07S

$$

OFFSHORE ISLANDS

CITY           SKY/WX    TMP DP  RH WIND       PRES   REMARKS
CATALINA ARPT  MOCLDY    52  51  97 SW13      30.06F
SAN NICOLAS IS CLEAR    N/A N/A N/A W15       30.07S

$$

MARINE AND OFFSHORE BUOY REPORTS

STATION/POSITION SKY/WX   TEMP    WIND        PRES    SWELL
                          AIR SEA DIR/SP/G            HT/PER/DIR
                          (F)     (DEG/KT/KT) (MB)    (FT/S/D)
TANNER BANKS               60 61  310/ 12/ 16 1018.9F   3/300/12
S CLEMENTE BASIN           61 62  290/ 14/ 16 1018.4R   2/280/11
SAN NICOLAS IS.               59                N/A     2/280/12
SO. S. ROSA ISLA           58 59  320/ 17/ 21 1017.5F   3/11
W. S. BARBARA CH           57 57  320/ 17/ 19 1017.5F   3/290/11
M. S. BARBARA CH           58 58  330/  4/  6 1017.9F
S. MONICA BASIN            60 63  250/  4/  8 1017.8S   3/260/ 6
S PEDRO CHANNEL               62                N/A     2/260/13
DANA POINT                    64                N/A     2/190/15
OCEANSIDE OFFSHR              64                N/A     2/190/15
TORREY PINES OTR              64                N/A     2/260/13
LA JOLLA 1                 60 65  290/  9/ 11 1018.2F
MISSION BAY BUOY              63                N/A     2/190/15
SAN DIEGO BAY                 69              1018.8F
POINT LOMA SOUTH              64                N/A     2/200/15

$$



USA.gov is the U.S. government's official web portal to all federal, state and local government web resources and services.